Time,TemperatureF,DewpointF,PressureIn,WindDirection,WindDirectionDegrees,WindSpeedMPH,WindSpeedGustMPH,Humidity,HourlyPrecipIn,Conditions,Clouds,dailyrainin,SoftwareType,DateUTC
2013-06-07 00:01:00,67.9,67.0,29.75,ENE,66,1.0,1.0,97,0.00,,,0.00,Wunderground v.1.15,2013-06-07 04:01:00,
2013-06-07 00:11:00,67.9,67.0,29.75,NE,55,2.0,2.0,97,0.00,,,0.00,Wunderground v.1.15,2013-06-07 04:11:00,
2013-06-07 00:21:00,67.8,66.9,29.75,NE,34,2.0,3.0,97,0.00,,,0.00,Wunderground v.1.15,2013-06-07 04:21:00,
2013-06-07 00:31:00,67.8,66.9,29.74,NE,36,2.0,2.0,97,0.00,,,0.01,Wunderground v.1.15,2013-06-07 04:31:00,
2013-06-07 00:41:00,67.8,66.9,29.74,NE,46,1.0,1.0,97,0.00,,,0.01,Wunderground v.1.15,2013-06-07 04:41:00,
2013-06-07 00:51:00,67.8,66.9,29.74,NE,36,1.0,2.0,97,0.00,,,0.01,Wunderground v.1.15,2013-06-07 04:51:00,
2013-06-07 01:01:00,67.7,66.8,29.73,NE,38,2.0,2.0,97,0.00,,,0.02,Wunderground v.1.15,2013-06-07 05:01:00,
2013-06-07 01:11:00,67.7,66.8,29.72,NNE,21,3.0,4.0,97,0.00,,,0.02,Wunderground v.1.15,2013-06-07 05:11:00,
2013-06-07 01:21:00,67.7,66.8,29.72,NNE,24,3.0,3.0,97,0.00,,,0.02,Wunderground v.1.15,2013-06-07 05:21:00,
2013-06-07 01:31:00,67.6,66.7,29.71,NNE,28,3.0,3.0,97,0.00,,,0.02,Wunderground v.1.15,2013-06-07 05:31:00,
2013-06-07 01:41:00,67.6,66.7,29.71,NNE,26,3.0,3.0,97,0.00,,,0.03,Wunderground v.1.15,2013-06-07 05:41:00,
2013-06-07 01:51:00,67.6,66.7,29.70,NNE,16,3.0,3.0,97,0.00,,,0.03,Wunderground v.1.15,2013-06-07 05:51:00,
2013-06-07 02:01:00,67.6,66.7,29.70,NNW,335,3.0,3.0,97,0.00,,,0.04,Wunderground v.1.15,2013-06-07 06:01:00,
2013-06-07 02:11:00,67.6,66.7,29.69,North,5,3.0,3.0,97,0.00,,,0.04,Wunderground v.1.15,2013-06-07 06:11:00,
2013-06-07 02:21:00,67.5,66.6,29.69,NNE,17,3.0,3.0,97,0.00,,,0.04,Wunderground v.1.15,2013-06-07 06:21:00,
2013-06-07 02:31:00,67.6,66.7,29.68,NNE,17,3.0,3.0,97,0.00,,,0.05,Wunderground v.1.15,2013-06-07 06:31:00,
2013-06-07 02:41:00,67.6,66.7,29.67,North,355,3.0,3.0,97,0.00,,,0.05,Wunderground v.1.15,2013-06-07 06:41:00,
2013-06-07 02:51:00,67.6,66.7,29.67,NNE,19,3.0,3.0,97,0.00,,,0.05,Wunderground v.1.15,2013-06-07 06:51:00,
2013-06-07 03:01:00,67.6,66.7,29.67,NNW,339,3.0,3.0,97,0.00,,,0.06,Wunderground v.1.15,2013-06-07 07:01:00,
2013-06-07 03:11:00,67.7,66.8,29.67,NNE,28,2.0,5.0,97,0.00,,,0.06,Wunderground v.1.15,2013-06-07 07:11:00,
2013-06-07 03:21:00,67.6,66.7,29.66,NNE,18,4.0,4.0,97,0.00,,,0.07,Wunderground v.1.15,2013-06-07 07:21:00,
2013-06-07 03:31:00,67.7,66.8,29.66,NNE,19,3.0,3.0,97,0.00,,,0.07,Wunderground v.1.15,2013-06-07 07:31:00,
2013-06-07 03:41:00,67.7,66.8,29.65,NNE,22,2.0,2.0,97,0.00,,,0.07,Wunderground v.1.15,2013-06-07 07:41:00,
2013-06-07 03:51:00,67.6,66.7,29.65,North,360,3.0,4.0,97,0.00,,,0.08,Wunderground v.1.15,2013-06-07 07:51:00,
2013-06-07 04:01:00,67.6,66.7,29.64,North,5,3.0,3.0,97,0.00,,,0.08,Wunderground v.1.15,2013-06-07 08:01:00,
2013-06-07 04:11:00,67.6,66.7,29.64,NE,38,3.0,4.0,97,0.00,,,0.08,Wunderground v.1.15,2013-06-07 08:11:00,
2013-06-07 04:21:00,67.6,66.7,29.64,NNE,30,3.0,3.0,97,0.00,,,0.09,Wunderground v.1.15,2013-06-07 08:21:00,
2013-06-07 04:31:00,67.6,66.7,29.63,NE,46,4.0,4.0,97,0.00,,,0.09,Wunderground v.1.15,2013-06-07 08:31:00,
2013-06-07 04:41:00,67.6,66.7,29.63,NNE,23,4.0,4.0,97,0.00,,,0.09,Wunderground v.1.15,2013-06-07 08:41:00,
2013-06-07 04:51:00,67.6,66.7,29.63,NNW,348,4.0,5.0,97,0.00,,,0.10,Wunderground v.1.15,2013-06-07 08:51:00,
2013-06-07 05:01:00,67.6,66.7,29.63,NNE,15,3.0,3.0,97,0.00,,,0.10,Wunderground v.1.15,2013-06-07 09:01:00,
2013-06-07 05:11:00,67.6,66.7,29.62,North,11,4.0,4.0,97,0.00,,,0.10,Wunderground v.1.15,2013-06-07 09:11:00,
2013-06-07 05:21:00,67.6,66.7,29.62,North,360,3.0,3.0,97,0.00,,,0.11,Wunderground v.1.15,2013-06-07 09:21:00,
2013-06-07 05:31:00,67.6,66.7,29.63,NE,47,3.0,3.0,97,0.00,,,0.11,Wunderground v.1.15,2013-06-07 09:31:00,
2013-06-07 05:41:00,67.6,66.7,29.63,NNE,22,3.0,4.0,97,0.00,,,0.11,Wunderground v.1.15,2013-06-07 09:41:00,
2013-06-07 05:51:00,67.6,66.7,29.63,North,355,3.0,3.0,97,0.00,,,0.12,Wunderground v.1.15,2013-06-07 09:51:00,
2013-06-07 06:01:00,67.6,66.7,29.63,NNW,334,4.0,4.0,97,0.00,,,0.12,Wunderground v.1.15,2013-06-07 10:01:00,
2013-06-07 06:11:00,67.5,66.6,29.64,North,9,1.0,1.0,97,0.00,,,0.12,Wunderground v.1.15,2013-06-07 10:11:00,
2013-06-07 06:21:00,67.5,66.6,29.64,NNW,329,1.0,1.0,97,0.00,,,0.13,Wunderground v.1.15,2013-06-07 10:21:00,
2013-06-07 06:31:00,67.5,66.6,29.64,NNW,343,1.0,1.0,97,0.00,,,0.13,Wunderground v.1.15,2013-06-07 10:31:00,
2013-06-07 06:41:00,67.4,66.5,29.64,ENE,63,0.0,1.0,97,0.00,,,0.13,Wunderground v.1.15,2013-06-07 10:41:00,
2013-06-07 06:51:00,67.4,66.5,29.63,NNE,22,2.0,2.0,97,0.00,,,0.14,Wunderground v.1.15,2013-06-07 10:51:00,
2013-06-07 07:01:00,67.4,66.5,29.64,WNW,300,1.0,3.0,97,0.00,,,0.14,Wunderground v.1.15,2013-06-07 11:01:00,
2013-06-07 07:11:00,67.4,66.5,29.63,NW,311,1.0,1.0,97,0.00,,,0.14,Wunderground v.1.15,2013-06-07 11:11:00,
2013-06-07 07:21:00,67.4,66.5,29.63,NNE,17,2.0,2.0,97,0.00,,,0.15,Wunderground v.1.15,2013-06-07 11:21:00,
2013-06-07 07:31:00,67.5,66.6,29.63,NNW,345,2.0,2.0,97,0.00,,,0.15,Wunderground v.1.15,2013-06-07 11:31:00,
2013-06-07 07:41:00,67.4,66.5,29.63,North,5,2.0,2.0,97,0.00,,,0.15,Wunderground v.1.15,2013-06-07 11:41:00,
2013-06-07 07:51:00,67.5,66.6,29.63,NW,315,2.0,5.0,97,0.00,,,0.16,Wunderground v.1.15,2013-06-07 11:51:00,
2013-06-07 08:01:00,67.5,66.3,29.63,NNW,347,2.0,4.0,96,0.00,,,0.16,Wunderground v.1.15,2013-06-07 12:01:00,
2013-06-07 08:11:00,67.6,66.4,29.63,North,351,2.0,2.0,96,0.00,,,0.16,Wunderground v.1.15,2013-06-07 12:11:00,
2013-06-07 08:21:00,67.6,66.4,29.63,NW,305,2.0,3.0,96,0.00,,,0.17,Wunderground v.1.15,2013-06-07 12:21:00,
2013-06-07 08:31:00,67.8,66.6,29.64,North,355,1.0,2.0,96,0.00,,,0.17,Wunderground v.1.15,2013-06-07 12:31:00,
2013-06-07 08:41:00,67.9,66.7,29.64,NNE,12,2.0,2.0,96,0.00,,,0.17,Wunderground v.1.15,2013-06-07 12:41:00,
2013-06-07 08:51:00,68.1,66.9,29.64,NNE,17,1.0,2.0,96,0.00,,,0.18,Wunderground v.1.15,2013-06-07 12:51:00,
2013-06-07 09:01:00,68.4,67.2,29.65,NW,323,1.0,1.0,96,0.00,,,0.18,Wunderground v.1.15,2013-06-07 13:01:00,
2013-06-07 09:11:00,68.4,67.2,29.65,WNW,301,1.0,1.0,96,0.00,,,0.18,Wunderground v.1.15,2013-06-07 13:11:00,
2013-06-07 09:21:00,68.4,67.2,29.66,NW,309,1.0,1.0,96,0.00,,,0.18,Wunderground v.1.15,2013-06-07 13:21:00,
2013-06-07 09:31:00,68.5,67.3,29.66,NW,309,1.0,3.0,96,0.00,,,0.19,Wunderground v.1.15,2013-06-07 13:31:00,
2013-06-07 09:41:00,68.7,67.2,29.66,WNW,289,0.0,1.0,95,0.00,,,0.19,Wunderground v.1.15,2013-06-07 13:41:00,
2013-06-07 09:51:00,68.8,67.3,29.66,NW,324,1.0,1.0,95,0.00,,,0.20,Wunderground v.1.15,2013-06-07 13:51:00,
2013-06-07 10:01:00,69.2,68.0,29.66,West,277,1.0,1.0,96,0.00,,,0.20,Wunderground v.1.15,2013-06-07 14:01:00,
2013-06-07 10:11:00,69.6,68.4,29.66,West,275,2.0,2.0,96,0.00,,,0.20,Wunderground v.1.15,2013-06-07 14:11:00,
2013-06-07 10:21:00,69.7,68.5,29.66,West,277,3.0,3.0,96,0.00,,,0.20,Wunderground v.1.15,2013-06-07 14:21:00,
2013-06-07 11:01:00,70.7,68.9,29.66,WSW,244,5.0,5.0,94,0.00,,,0.22,Wunderground v.1.15,2013-06-07 15:01:00,
2013-06-07 11:11:00,70.9,68.5,29.66,West,268,5.0,5.0,92,0.00,,,0.22,Wunderground v.1.15,2013-06-07 15:11:00,
2013-06-07 11:21:00,71.3,69.5,29.67,SW,228,5.0,5.0,94,0.00,,,0.22,Wunderground v.1.15,2013-06-07 15:21:00,
2013-06-07 11:31:00,71.4,69.3,29.67,West,265,5.0,6.0,93,0.00,,,0.22,Wunderground v.1.15,2013-06-07 15:31:00,
2013-06-07 11:41:00,72.1,70.0,29.67,WSW,252,4.0,6.0,93,0.00,,,0.23,Wunderground v.1.15,2013-06-07 15:41:00,
2013-06-07 11:51:00,72.3,70.2,29.67,SW,221,4.0,7.0,93,0.00,,,0.23,Wunderground v.1.15,2013-06-07 15:51:00,
2013-06-07 12:01:00,72.9,70.8,29.67,West,266,5.0,5.0,93,0.00,,,0.23,Wunderground v.1.15,2013-06-07 16:01:00,
2013-06-07 12:11:00,73.2,70.1,29.67,WSW,250,6.0,6.0,90,0.00,,,0.23,Wunderground v.1.15,2013-06-07 16:11:00,
2013-06-07 12:21:00,73.3,70.2,29.68,WSW,252,6.0,6.0,90,0.00,,,0.24,Wunderground v.1.15,2013-06-07 16:21:00,
2013-06-07 12:31:00,73.8,70.4,29.68,SW,233,5.0,8.0,89,0.00,,,0.24,Wunderground v.1.15,2013-06-07 16:31:00,
2013-06-07 12:41:00,74.5,71.0,29.68,West,263,6.0,6.0,89,0.00,,,0.24,Wunderground v.1.15,2013-06-07 16:41:00,
2013-06-07 12:51:00,74.8,71.0,29.68,West,270,6.0,6.0,88,0.00,,,0.24,Wunderground v.1.15,2013-06-07 16:51:00,
2013-06-07 13:01:00,75.3,71.2,29.68,SW,225,5.0,5.0,87,0.00,,,0.25,Wunderground v.1.15,2013-06-07 17:01:00,
2013-06-07 13:11:00,75.7,71.2,29.68,SSW,211,5.0,7.0,86,0.00,,,0.25,Wunderground v.1.15,2013-06-07 17:11:00,
2013-06-07 13:21:00,76.2,71.0,29.67,WSW,250,5.0,6.0,84,0.00,,,0.25,Wunderground v.1.15,2013-06-07 17:21:00,
2013-06-07 13:31:00,76.8,72.6,29.67,SW,217,5.0,5.0,87,0.00,,,0.25,Wunderground v.1.15,2013-06-07 17:31:00,
2013-06-07 13:41:00,77.8,72.2,29.67,South,182,6.0,8.0,83,0.00,,,0.26,Wunderground v.1.15,2013-06-07 17:41:00,
2013-06-07 13:51:00,77.7,72.1,29.67,SSW,207,6.0,6.0,83,0.00,,,0.26,Wunderground v.1.15,2013-06-07 17:51:00,
2013-06-07 14:01:00,79.0,71.6,29.67,SW,236,5.0,5.0,78,0.00,,,0.26,Wunderground v.1.15,2013-06-07 18:01:00,
2013-06-07 14:31:00,79.5,72.4,29.67,SW,225,6.0,6.0,79,0.00,,,0.26,Wunderground v.1.15,2013-06-07 18:31:00,
2013-06-07 14:41:00,80.4,72.1,29.66,WSW,241,4.0,11.0,76,0.00,,,0.27,Wunderground v.1.15,2013-06-07 18:41:00,
2013-06-07 14:51:00,80.7,72.4,29.66,South,189,7.0,7.0,76,0.00,,,0.27,Wunderground v.1.15,2013-06-07 18:51:00,
2013-06-07 15:01:00,81.4,72.7,29.66,SSW,194,7.0,7.0,75,0.00,,,0.27,Wunderground v.1.15,2013-06-07 19:01:00,
2013-06-07 15:11:00,80.5,71.8,29.65,South,190,4.0,4.0,75,0.00,,,0.27,Wunderground v.1.15,2013-06-07 19:11:00,
2013-06-07 15:21:00,81.7,72.6,29.65,WSW,240,6.0,6.0,74,0.00,,,0.27,Wunderground v.1.15,2013-06-07 19:21:00,
2013-06-07 15:31:00,82.4,72.5,29.65,SSW,211,5.0,7.0,72,0.00,,,0.27,Wunderground v.1.15,2013-06-07 19:31:00,
2013-06-07 15:41:00,82.1,71.8,29.65,SW,215,6.0,6.0,71,0.00,,,0.27,Wunderground v.1.15,2013-06-07 19:41:00,
2013-06-07 15:51:00,82.4,71.6,29.65,SSW,213,6.0,7.0,70,0.00,,,0.27,Wunderground v.1.15,2013-06-07 19:51:00,
2013-06-07 16:01:00,82.5,73.4,29.64,SW,234,6.0,6.0,74,0.00,,,0.27,Wunderground v.1.15,2013-06-07 20:01:00,
2013-06-07 16:11:00,82.8,72.0,29.65,SW,231,8.0,8.0,70,0.00,,,0.27,Wunderground v.1.15,2013-06-07 20:11:00,
2013-06-07 17:01:00,80.5,69.8,29.66,WNW,288,7.0,12.0,70,0.00,,,0.28,Wunderground v.1.15,2013-06-07 21:01:00,
2013-06-07 17:11:00,75.6,69.0,29.67,SW,222,10.0,10.0,80,0.00,,,0.28,Wunderground v.1.15,2013-06-07 21:11:00,
2013-06-07 17:31:00,71.7,68.3,29.67,WSW,241,4.0,4.0,89,0.00,,,0.28,Wunderground v.1.15,2013-06-07 21:31:00,
2013-06-07 17:41:00,71.7,68.3,29.67,WNW,284,3.0,3.0,89,0.00,,,0.28,Wunderground v.1.15,2013-06-07 21:41:00,
2013-06-07 18:01:00,72.9,69.5,29.67,SW,217,3.0,3.0,89,0.00,,,0.28,Wunderground v.1.15,2013-06-07 22:01:00,
2013-06-07 18:11:00,73.2,69.4,29.68,South,190,3.0,3.0,88,0.00,,,0.28,Wunderground v.1.15,2013-06-07 22:11:00,
2013-06-07 18:21:00,73.4,70.0,29.68,SSE,157,3.0,3.0,89,0.00,,,0.28,Wunderground v.1.15,2013-06-07 22:21:00,
2013-06-07 18:31:00,74.2,70.1,29.68,SSW,195,2.0,2.0,87,0.00,,,0.28,Wunderground v.1.15,2013-06-07 22:31:00,
2013-06-07 18:41:00,74.6,69.1,29.68,SE,130,0.0,0.0,83,0.00,,,0.28,Wunderground v.1.15,2013-06-07 22:41:00,
2013-06-07 19:01:00,73.6,70.2,29.68,NNE,22,1.0,1.0,89,0.00,,,0.28,Wunderground v.1.15,2013-06-07 23:01:00,
2013-06-07 19:11:00,73.4,70.3,29.68,NNE,22,0.0,0.0,90,0.00,,,0.28,Wunderground v.1.15,2013-06-07 23:11:00,
2013-06-07 19:21:00,73.2,70.1,29.69,WNW,301,1.0,1.0,90,0.14,,,0.31,Wunderground v.1.15,2013-06-07 23:21:00,
2013-06-07 19:31:00,72.7,70.2,29.69,SW,221,1.0,1.0,92,0.04,,,0.31,Wunderground v.1.15,2013-06-07 23:31:00,
2013-06-07 19:41:00,72.4,69.9,29.70,WSW,246,1.0,3.0,92,0.00,,,0.31,Wunderground v.1.15,2013-06-07 23:41:00,
2013-06-07 19:51:00,73.0,69.6,29.71,SW,227,6.0,6.0,89,0.00,,,0.31,Wunderground v.1.15,2013-06-07 23:51:00,
2013-06-07 20:01:00,72.8,69.7,29.72,WSW,251,6.0,7.0,90,0.00,,,0.31,Wunderground v.1.15,2013-06-08 00:01:00,
2013-06-07 20:31:00,71.7,68.0,29.72,West,259,6.0,6.0,88,0.00,,,0.31,Wunderground v.1.15,2013-06-08 00:31:00,
2013-06-07 20:41:00,71.2,67.5,29.73,WSW,257,4.0,4.0,88,0.00,,,0.31,Wunderground v.1.15,2013-06-08 00:41:00,
2013-06-07 20:51:00,70.7,67.3,29.73,WSW,240,3.0,4.0,89,0.00,,,0.31,Wunderground v.1.15,2013-06-08 00:51:00,
2013-06-07 21:01:00,70.2,67.1,29.73,NW,306,2.0,3.0,90,0.00,,,0.31,Wunderground v.1.15,2013-06-08 01:01:00,
2013-06-07 21:11:00,69.8,67.1,29.73,NNW,337,1.0,1.0,91,0.00,,,0.31,Wunderground v.1.15,2013-06-08 01:11:00,
2013-06-07 21:21:00,69.6,67.2,29.74,NNW,337,0.0,0.0,92,0.00,,,0.31,Wunderground v.1.15,2013-06-08 01:21:00,
2013-06-07 21:31:00,69.5,67.1,29.75,WSW,239,0.0,0.0,92,0.00,,,0.32,Wunderground v.1.15,2013-06-08 01:31:00,
2013-06-07 22:01:00,68.9,67.4,29.76,WSW,239,0.0,0.0,95,0.00,,,0.32,Wunderground v.1.15,2013-06-08 02:01:00,
2013-06-07 22:21:00,68.8,67.3,29.77,WSW,242,0.0,0.0,95,0.00,,,0.32,Wunderground v.1.15,2013-06-08 02:21:00,
2013-06-07 22:31:00,69.0,67.8,29.78,WSW,242,0.0,0.0,96,0.00,,,0.32,Wunderground v.1.15,2013-06-08 02:31:00,
2013-06-07 22:41:00,68.9,67.7,29.79,SSW,204,1.0,1.0,96,0.00,,,0.32,Wunderground v.1.15,2013-06-08 02:41:00,
2013-06-07 22:51:00,68.7,67.5,29.79,South,180,2.0,2.0,96,0.00,,,0.32,Wunderground v.1.15,2013-06-08 02:51:00,
2013-06-07 23:01:00,68.6,67.1,29.79,South,173,1.0,1.0,95,0.00,,,0.32,Wunderground v.1.15,2013-06-08 03:01:00,
2013-06-07 23:11:00,68.6,67.1,29.79,SSE,161,1.0,1.0,95,0.00,,,0.32,Wunderground v.1.15,2013-06-08 03:11:00,
2013-06-07 23:21:00,68.6,66.8,29.79,SSE,157,0.0,0.0,94,0.00,,,0.32,Wunderground v.1.15,2013-06-08 03:21:00,
2013-06-07 23:31:00,68.5,67.0,29.79,South,182,1.0,2.0,95,0.00,,,0.32,Wunderground v.1.15,2013-06-08 03:31:00,
2013-06-07 23:51:00,68.5,67.0,29.79,SSW,202,2.0,3.0,95,0.00,,,0.32,Wunderground v.1.15,2013-06-08 03:51:00,